Weather reports worldwide

Advertisment
West Freugh, United Kingdom (3132): temperature & dewpoint: 16.04.2018 17:00:00 - 22.04.2018 17:00:00 (BST)West Freugh, United Kingdom (3132): temperature -20cm & temperature -100cm: 16.04.2018 17:00:00 - 22.04.2018 17:00:00 (BST)West Freugh, United Kingdom (3132): wind speed & gusts: 16.04.2018 17:00:00 - 22.04.2018 17:00:00 (BST)West Freugh, United Kingdom (3132): wind direction: 16.04.2018 17:00:00 - 22.04.2018 17:00:00 (BST)West Freugh, United Kingdom (3132): reduced air pressure: 16.04.2018 17:00:00 - 22.04.2018 17:00:00 (BST)West Freugh, United Kingdom (3132): visibility: 16.04.2018 17:00:00 - 22.04.2018 17:00:00 (BST)West Freugh, United Kingdom (3132): precipitation: 16.04.2018 17:00:00 - 22.04.2018 17:00:00 (BST)
Date & Time tt [°C] td [°C] tt -20cm [°C] tt -100cm [°C] ff [km/h] ff [kn] fx [km/h] fx [kn] dd ppp [hPa] vv [km] rr [mm]
22.04.2018 17:00:00 - - - - - - - - - - - -
22.04.2018 16:00:00 11,0 7,1 - - 21 11 - - S 1004,8 45 0,0
22.04.2018 15:00:00 12,8 7,2 - - 16 9 - - SW 1004,8 30 0,0
22.04.2018 14:00:00 12,5 7,6 - - 21 11 - - WSW 1005,0 40 0,0
22.04.2018 13:00:00 10,3 8,4 - - 16 9 - - SSW 1005,1 45 0,0
22.04.2018 12:00:00 11,0 10,2 - - 22 12 - - SW 1004,9 35 0,2
22.04.2018 11:00:00 9,1 8,7 - - 21 11 - - SSW 1005,0 14 0,2
22.04.2018 10:00:00 8,5 8,0 10,7 8,7 15 8 - - SSW 1004,9 13 0,2
22.04.2018 09:00:00 8,4 7,8 - - 11 6 - - S 1004,8 20 1,4
22.04.2018 08:00:00 8,2 7,1 - - 9 5 - - WSW 1005,1 7 0,4
22.04.2018 07:00:00 8,1 7,0 - - 8 4 - - SW 1004,8 15 0,0
22.04.2018 06:00:00 8,2 7,0 - - 11 6 - - S 1005,2 10 0,0
22.04.2018 05:00:00 8,5 7,7 - - 11 6 - - SE 1005,6 9 0,0
22.04.2018 04:00:00 8,3 7,2 - - 5 3 - - S 1006,0 9 0,0
22.04.2018 03:00:00 8,6 7,3 - - 8 4 - - ESE 1006,8 9 0,0
22.04.2018 02:00:00 8,5 7,1 - - 9 5 - - SE 1007,4 12 0,0
22.04.2018 01:00:00 7,1 6,3 - - 8 4 - - ESE 1008,2 9 0,0
22.04.2018 00:00:00 7,1 6,3 - - 9 5 - - SSW 1009,0 9 0,0
21.04.2018 23:00:00 6,7 5,6 - - 8 4 - - S 1009,3 9 0,0
21.04.2018 22:00:00 6,7 5,5 - - 4 2 - - S 1009,8 11 0,0
21.04.2018 21:00:00 7,7 5,7 - - 4 2 - - WSW 1010,8 13 0,0
21.04.2018 20:00:00 9,8 6,8 - - 11 6 - - SE 1011,8 14 0,0
21.04.2018 19:00:00 11,7 7,3 - - 16 9 - - SE 1012,6 20 0,0
21.04.2018 18:00:00 12,7 7,4 - - 21 11 - - SE 1013,7 19 0,0
21.04.2018 17:00:00 13,0 6,8 - - 21 11 - - SE 1014,8 21 0,0
21.04.2018 16:00:00 13,4 7,4 - - 21 11 - - SE 1015,7 30 0,0
21.04.2018 15:00:00 13,7 7,6 - - 22 12 - - SSE 1017,0 28 0,0
21.04.2018 14:00:00 13,2 7,6 - - 21 11 - - SE 1018,1 24 0,0
21.04.2018 13:00:00 12,4 8,6 - - 21 11 - - SE 1019,0 15 0,0
21.04.2018 12:00:00 11,5 7,6 - - 24 13 - - SE 1019,9 18 0,0
21.04.2018 11:00:00 11,4 8,3 - - 22 12 - - ESE 1020,6 24 0,0
21.04.2018 10:00:00 10,9 8,1 10,5 8,4 18 10 - - ESE 1021,0 20 0,0
21.04.2018 09:00:00 9,6 7,9 - - 21 11 - - ESE 1021,5 26 0,0
21.04.2018 08:00:00 7,3 7,0 - - 11 6 - - ENE 1021,8 15 0,0
21.04.2018 07:00:00 5,5 5,4 - - 8 4 - - E 1022,0 13 0,0
21.04.2018 06:00:00 3,6 3,4 - - 8 4 - - E 1022,2 5 0,0
21.04.2018 05:00:00 4,5 4,4 - - 4 2 - - NE 1022,4 11 0,0
21.04.2018 04:00:00 3,9 3,7 - - 8 4 - - E 1022,9 10 0,0
21.04.2018 03:00:00 3,5 3,1 - - 4 2 - - ENE 1023,3 15 0,0
21.04.2018 02:00:00 5,1 4,5 - - 8 4 - - NE 1023,7 26 0,0
21.04.2018 01:00:00 6,6 6,3 - - 5 3 - - N 1024,0 15 0,0
21.04.2018 00:00:00 7,2 6,9 - - 5 3 - - N 1024,2 16 0,0
20.04.2018 23:00:00 6,1 5,6 - - 4 2 - - NE 1024,2 12 0,0
20.04.2018 22:00:00 5,4 4,3 - - 2 1 - - E 1024,5 24 0,0
20.04.2018 21:00:00 7,5 5,8 - - 2 1 - - SW 1024,3 18 0,0
20.04.2018 20:00:00 9,4 7,0 - - 5 3 - - SSW 1024,1 23 0,0
20.04.2018 19:00:00 11,0 8,0 - - 22 12 - - SW 1023,7 22 0,0
20.04.2018 18:00:00 12,9 8,2 - - 21 11 - - SSW 1023,7 21 0,0
20.04.2018 17:00:00 14,4 8,5 - - 16 9 - - SSW 1023,9 23 0,0
20.04.2018 16:00:00 14,7 8,4 - - 16 9 - - SSW 1024,0 30 0,0
20.04.2018 15:00:00 14,7 9,1 - - 16 9 - - SSW 1024,3 21 0,0
20.04.2018 14:00:00 13,8 8,6 - - 13 7 - - SW 1024,5 19 0,0
20.04.2018 13:00:00 13,1 8,2 - - 18 10 - - SW 1024,7 19 0,0
20.04.2018 12:00:00 13,0 9,7 - - 13 7 - - S 1024,4 26 0,0
20.04.2018 11:00:00 10,5 9,9 - - 9 5 - - S 1024,4 29 0,0
20.04.2018 10:00:00 8,7 8,7 9,9 8,2 9 5 - - SE 1024,3 2,6 0,0
20.04.2018 09:00:00 7,8 7,8 - - 8 4 - - SE 1024,1 0,3 0,0
20.04.2018 08:00:00 7,8 7,8 - - 5 3 - - SE 1023,9 0,3 0,0
20.04.2018 07:00:00 7,8 7,8 - - 5 3 - - SE 1023,7 0,3 0,0
20.04.2018 06:00:00 7,9 7,9 - - 9 5 - - SE 1023,2 0,3 0,0
20.04.2018 05:00:00 8,2 8,2 - - 9 5 - - ESE 1023,3 1,5 0,0
20.04.2018 04:00:00 8,2 8,1 - - 11 6 - - ESE 1023,2 0,3 0,0
20.04.2018 03:00:00 7,5 7,4 - - 8 4 - - E 1023,1 8 0,0
20.04.2018 02:00:00 7,0 6,8 - - 8 4 - - ESE 1023,4 9 0,0
20.04.2018 01:00:00 7,7 7,6 - - 11 6 - - SSE 1023,7 11 0,0
20.04.2018 00:00:00 7,7 7,6 - - 11 6 - - E 1024,0 10 0,0
19.04.2018 23:00:00 7,1 6,9 - - 8 4 - - ESE 1024,1 9 0,0
19.04.2018 22:00:00 7,3 7,0 - - 9 5 - - ESE 1024,1 10 0,0
19.04.2018 21:00:00 7,9 7,5 - - 11 6 - - ESE 1023,8 12 0,0
19.04.2018 20:00:00 9,0 8,2 - - 8 4 - - ESE 1023,7 15 0,0
19.04.2018 19:00:00 9,7 8,8 - - 13 7 - - ESE 1023,6 18 0,0
19.04.2018 18:00:00 10,5 9,6 - - 11 6 - - ESE 1023,6 28 0,0
19.04.2018 17:00:00 10,7 9,1 - - 16 9 - - ESE 1023,6 26 0,0
19.04.2018 16:00:00 10,6 9,5 - - 16 9 - - ESE 1023,5 8 0,0
19.04.2018 15:00:00 10,9 10,0 - - 11 6 - - ESE 1023,5 15 0,0
19.04.2018 14:00:00 10,2 9,8 - - 15 8 - - S 1023,3 20 0,0
19.04.2018 13:00:00 9,3 8,7 - - 13 7 - - SSE 1023,4 9 0,0
19.04.2018 12:00:00 10,4 9,7 - - 22 12 - - S 1022,8 16 0,0
19.04.2018 11:00:00 10,4 9,6 - - 28 15 - - S 1022,2 15 0,0
19.04.2018 10:00:00 11,1 10,4 9,7 8,0 29 16 - - S 1021,7 30 0,0
19.04.2018 09:00:00 10,6 10,6 - - 24 13 - - S 1021,3 17 0,0
19.04.2018 08:00:00 9,0 8,9 - - 18 10 - - SE 1020,8 0,4 0,0
19.04.2018 07:00:00 9,2 8,8 - - 15 8 - - ESE 1020,4 6 -
19.04.2018 06:00:00 8,9 8,4 - - 11 6 - - SE 1020,0 8 -
19.04.2018 05:00:00 9,0 8,7 - - 13 7 - - E 1019,8 10 -
19.04.2018 04:00:00 8,7 8,0 - - 18 10 - - SE 1019,8 10 -
19.04.2018 03:00:00 8,7 8,0 - - 18 10 - - SE 1019,8 10 -
19.04.2018 02:00:00 8,8 7,5 - - 16 9 - - E 1020,1 11 0,0
19.04.2018 01:00:00 10,2 8,1 - - 16 9 - - SSE 1020,0 14 0,0
19.04.2018 00:00:00 10,9 8,5 - - 16 9 48 26 SSE 1019,8 15 0,0
18.04.2018 23:00:00 13,0 9,1 - - 35 19 46 25 S 1019,6 20 0,0
18.04.2018 22:00:00 10,9 9,1 - - 18 10 - - SSE 1019,4 17 0,0
18.04.2018 21:00:00 10,8 8,6 - - 16 9 - - SSE 1018,8 13 0,0
18.04.2018 20:00:00 12,1 9,8 - - 26 14 - - SE 1018,7 17 0,0
18.04.2018 19:00:00 12,5 10,3 - - 31 17 48 26 SE 1018,7 21 0,0
18.04.2018 18:00:00 11,6 9,2 - - 34 18 46 25 SE 1019,1 21 0,0
18.04.2018 17:00:00 12,9 9,9 - - 31 17 46 25 SSE 1019,9 19 0,0
18.04.2018 16:00:00 12,2 9,7 - - 26 14 54 29 SE 1020,9 13 0,0
18.04.2018 15:00:00 11,9 10,5 - - 35 19 46 25 SSE 1021,0 13 0,0
18.04.2018 14:00:00 10,7 10,5 - - 24 13 - - SSE 1021,4 7 0,0
18.04.2018 13:00:00 9,9 9,7 - - 31 17 - - SSE 1021,5 2,9 0,0
18.04.2018 12:00:00 9,9 9,7 - - 18 10 50 27 SSE 1021,1 5 0,0
18.04.2018 11:00:00 10,2 10,2 - - 34 18 48 26 S 1020,6 5 0,0
18.04.2018 10:00:00 10,1 10,1 9,7 8,0 34 18 54 29 S 1019,6 5 0,0
18.04.2018 09:00:00 9,8 9,8 - - 26 14 - - S 1018,9 4,0 0,0
18.04.2018 08:00:00 9,4 9,4 - - 26 14 - - SSE 1018,2 3,1 0,0
18.04.2018 07:00:00 9,3 9,3 - - 28 15 - - SSE 1017,6 9 0,4
18.04.2018 06:00:00 9,3 9,3 - - 22 12 - - SSE 1017,4 2,1 0,8
18.04.2018 05:00:00 8,9 8,8 - - 21 11 - - SSE 1017,0 3,1 0,4
18.04.2018 04:00:00 8,9 8,7 - - 26 14 - - SSE 1016,9 5 0,0
18.04.2018 03:00:00 9,2 8,8 - - 24 13 - - SSE 1016,6 6 0,0
18.04.2018 02:00:00 9,6 8,8 - - 29 16 - - S 1016,4 10 0,0
18.04.2018 01:00:00 9,3 8,7 - - 31 17 46 25 S 1015,6 8 0,0
18.04.2018 00:00:00 9,3 8,5 - - 29 16 46 25 S 1015,0 8 0,0
17.04.2018 23:00:00 9,3 8,2 - - 31 17 55 30 S 1013,9 8 0,0
17.04.2018 22:00:00 9,7 8,4 - - 37 20 57 31 S 1013,0 8 0,0
17.04.2018 21:00:00 9,9 8,5 - - 41 22 61 33 S 1012,2 8 0,0
17.04.2018 20:00:00 10,3 8,5 - - 44 24 65 35 S 1011,1 9 0,0
17.04.2018 19:00:00 11,1 8,6 - - 52 28 70 38 S 1009,9 10 0,0
17.04.2018 18:00:00 12,2 9,1 - - 50 27 70 38 S 1008,9 11 0,0
17.04.2018 17:00:00 12,5 9,0 - - 46 25 74 40 S 1008,2 10 0,0
17.04.2018 16:00:00 13,1 9,4 - - 46 25 72 39 S 1007,4 10 0,0
17.04.2018 15:00:00 13,0 9,5 - - 50 27 80 43 S 1007,0 10 0,0
17.04.2018 14:00:00 12,6 8,8 - - 59 32 81 44 S 1006,1 13 0,0
17.04.2018 13:00:00 12,7 9,8 - - 57 31 80 43 S 1005,4 12 0,0
17.04.2018 12:00:00 11,8 10,3 - - 48 26 74 40 S 1005,3 10 0,0
17.04.2018 11:00:00 10,6 9,6 - - 52 28 76 41 S 1004,6 6 0,0
17.04.2018 10:00:00 10,5 9,6 9,2 7,7 54 29 72 39 S 1004,1 8 0,0
17.04.2018 09:00:00 10,1 9,0 - - 52 28 74 40 S 1003,8 7 0,0
17.04.2018 08:00:00 10,1 9,2 - - 52 28 72 39 S 1003,2 8 0,2
17.04.2018 07:00:00 9,7 9,1 - - 50 27 68 37 S 1002,4 6 0,4
17.04.2018 06:00:00 9,9 9,2 - - 54 29 74 40 SSE 1002,3 6 0,4
17.04.2018 05:00:00 9,3 8,7 - - 46 25 67 36 SSE 1002,3 3,4 0,0
17.04.2018 04:00:00 9,3 8,4 - - 44 24 68 37 SSE 1003,0 7 1,6
17.04.2018 03:00:00 9,4 8,0 - - 41 22 59 32 SSE 1003,7 5 0,8
17.04.2018 02:00:00 9,3 7,9 - - 42 23 63 34 SSE 1004,4 9 0,0
17.04.2018 01:00:00 9,4 6,9 - - 39 21 57 31 SE 1005,1 12 0,0
17.04.2018 00:00:00 9,3 7,1 - - 41 22 61 33 SSE 1005,1 12 0,0
16.04.2018 23:00:00 8,8 7,3 - - 39 21 55 30 SSE 1005,6 11 0,2
16.04.2018 22:00:00 8,9 7,2 - - 39 21 57 31 SSE 1006,3 10 0,0
16.04.2018 21:00:00 9,5 6,7 - - 37 20 59 32 SSE 1006,7 12 0,0
16.04.2018 20:00:00 9,3 6,6 - - 42 23 55 30 SSE 1006,7 11 0,0
16.04.2018 19:00:00 9,2 6,7 - - 39 21 57 31 SSE 1006,5 10 0,2
16.04.2018 18:00:00 9,7 6,6 - - 37 20 55 30 SSE 1006,4 11 0,0
16.04.2018 17:00:00 9,8 6,7 - - 35 19 54 29 SSE 1006,7 12 0,0

tt = temperature
td = dewpoint
tt -20cm = temperature -20cm
tt -100cm = temperature -100cm
ff = wind speed
fx = gusts
dd = wind direction
ppp = reduced air pressure
vv = visibility
rr = precipitation

Next stations